Location: Bonac
(42.8765°N, 0.9753°E)
Time: 05:57:48
(UTC+00:00)

Meteor 1-16 Rocket - Pass Details

Date: 12 January 2026
Orbit: 789 x 905 km, 81.2° (Epoch: 10 February)

Event Time Altitude Azimuth Distance (km) Brightness Sun altitude
Rises 18:06:45 0° 353° (N) 3,294 7.2 -14.9°
Reaches altitude 10° 18:09:10 10° 358° (N) 2,361 6.4 -15.3°
Maximum altitude 18:14:24 58° 77° (ENE) 925 4.1 -16.2°
Drops below altitude 10° 18:19:40 10° 156° (SSE) 2,377 6.4 -17.2°
Sets 18:22:06 0° 161° (SSE) 3,317 7.2 -17.6°
